Time,TemperatureF,DewpointF,PressureIn,WindDirection,WindDirectionDegrees,WindSpeedMPH,WindSpeedGustMPH,Humidity,HourlyPrecipIn,Conditions,Clouds,dailyrainin,SoftwareType,DateUTC
2013-03-18 00:02:00,21.0,12.0,-100.00,ESE,113,7.0,8.0,69,0.00,,,0.00,,2013-03-18 05:02:00,
2013-03-18 00:12:00,21.0,12.0,-100.00,ESE,113,6.0,7.0,70,0.00,,,0.00,,2013-03-18 05:12:00,
2013-03-18 00:22:00,22.0,12.0,-100.00,ESE,119,7.0,9.0,66,0.00,,,0.00,,2013-03-18 05:22:00,
2013-03-18 00:32:00,22.0,12.0,-100.00,SE,126,4.0,7.0,67,0.00,,,0.00,,2013-03-18 05:32:00,
2013-03-18 00:43:00,22.0,12.0,-100.00,SE,133,4.0,6.0,67,0.00,,,0.00,,2013-03-18 05:43:00,
2013-03-18 00:52:00,23.0,10.0,-100.00,SSE,162,3.0,4.0,60,0.00,,,0.00,,2013-03-18 05:52:00,
2013-03-18 01:02:00,24.0,10.0,-100.00,SSE,168,6.0,9.0,56,0.00,,,0.00,,2013-03-18 06:02:00,
2013-03-18 01:12:00,24.0,10.0,-100.00,South,174,6.0,9.0,54,0.00,,,0.00,,2013-03-18 06:12:00,
2013-03-18 01:22:00,24.0,10.0,-100.00,South,175,9.0,12.0,54,0.00,,,0.00,,2013-03-18 06:22:00,
2013-03-18 01:32:00,24.0,10.0,-100.00,SSE,162,6.0,7.0,55,0.00,,,0.00,,2013-03-18 06:32:00,
2013-03-18 01:42:00,24.0,10.0,-100.00,SSE,151,6.0,9.0,56,0.00,,,0.00,,2013-03-18 06:42:00,
2013-03-18 01:52:00,24.0,10.0,-100.00,SSE,157,6.0,8.0,57,0.00,,,0.00,,2013-03-18 06:52:00,
2013-03-18 02:02:00,24.0,10.0,-100.00,SSE,154,7.0,12.0,57,0.00,,,0.00,,2013-03-18 07:02:00,
2013-03-18 02:12:00,24.0,10.0,-100.00,SE,138,7.0,11.0,57,0.00,,,0.00,,2013-03-18 07:12:00,
2013-03-18 02:22:00,24.0,10.0,-100.00,SE,141,7.0,9.0,58,0.00,,,0.00,,2013-03-18 07:22:00,
2013-03-18 02:32:00,24.0,10.0,-100.00,SE,133,7.0,10.0,58,0.00,,,0.00,,2013-03-18 07:32:00,
2013-03-18 02:42:00,23.0,12.0,-100.00,SE,130,11.0,13.0,61,0.00,,,0.00,,2013-03-18 07:42:00,
2013-03-18 02:52:00,23.0,12.0,-100.00,SE,130,9.0,12.0,61,0.00,,,0.00,,2013-03-18 07:52:00,
2013-03-18 03:02:00,23.0,12.0,-100.00,SE,130,10.0,12.0,61,0.00,,,0.00,,2013-03-18 08:02:00,
2013-03-18 03:12:00,23.0,12.0,-100.00,SE,130,9.0,11.0,63,0.00,,,0.00,,2013-03-18 08:12:00,
2013-03-18 03:22:00,23.0,12.0,-100.00,SE,130,11.0,13.0,63,0.00,,,0.00,,2013-03-18 08:22:00,
2013-03-18 03:32:00,23.0,12.0,-100.00,ESE,121,12.0,14.0,63,0.00,,,0.00,,2013-03-18 08:32:00,
2013-03-18 03:43:00,23.0,12.0,-100.00,SE,124,8.0,10.0,64,0.00,,,0.00,,2013-03-18 08:43:00,
2013-03-18 03:52:00,23.0,12.0,-100.00,SE,138,9.0,12.0,63,0.00,,,0.00,,2013-03-18 08:52:00,
2013-03-18 04:02:00,23.0,12.0,-100.00,ESE,110,9.0,11.0,65,0.00,,,0.00,,2013-03-18 09:02:00,
2013-03-18 04:12:00,23.0,12.0,-100.00,ESE,112,7.0,9.0,65,0.00,,,0.00,,2013-03-18 09:12:00,
2013-03-18 04:22:00,23.0,14.0,-100.00,ESE,121,6.0,7.0,67,0.00,,,0.00,,2013-03-18 09:22:00,
2013-03-18 04:33:00,23.0,-99.9,-100.00,East,95,6.0,7.0,101,0.00,,,0.00,,2013-03-18 09:33:00,
2013-03-18 04:42:00,23.0,14.0,-100.00,ESE,112,6.0,7.0,69,0.00,,,0.00,,2013-03-18 09:42:00,
2013-03-18 04:53:00,23.0,14.0,-100.00,ESE,103,4.0,6.0,69,0.00,,,0.00,,2013-03-18 09:53:00,
2013-03-18 05:03:00,23.0,14.0,-100.00,ESE,106,5.0,7.0,70,0.00,,,0.00,,2013-03-18 10:03:00,
2013-03-18 05:12:00,23.0,16.0,-100.00,East,99,6.0,7.0,72,0.00,,,0.00,,2013-03-18 10:12:00,
2013-03-18 05:23:00,23.0,16.0,-100.00,ESE,116,6.0,9.0,71,0.00,,,0.00,,2013-03-18 10:23:00,
2013-03-18 05:33:00,24.0,16.0,-100.00,ESE,112,7.0,9.0,71,0.00,,,0.00,,2013-03-18 10:33:00,
2013-03-18 05:42:00,23.0,16.0,-100.00,North,-999,-999.0,-999.0,75,0.00,,,0.00,,2013-03-18 10:42:00,
2013-03-18 05:52:00,23.0,18.0,-100.00,ESE,120,6.0,8.0,82,0.00,,,0.00,,2013-03-18 10:52:00,
2013-03-18 06:03:00,22.0,19.0,-100.00,ESE,123,6.0,7.0,88,0.00,,,0.00,,2013-03-18 11:03:00,
2013-03-18 06:12:00,22.0,19.0,-100.00,ESE,113,8.0,9.0,91,0.00,,,0.00,,2013-03-18 11:12:00,
2013-03-18 06:22:00,22.0,19.0,-100.00,ESE,106,9.0,9.0,93,0.00,,,0.00,,2013-03-18 11:22:00,
2013-03-18 06:32:00,22.0,21.0,-100.00,East,99,9.0,11.0,94,0.00,,,0.00,,2013-03-18 11:32:00,
2013-03-18 06:42:00,22.0,21.0,-100.00,East,96,10.0,12.0,94,0.00,,,0.00,,2013-03-18 11:42:00,
2013-03-18 06:52:00,22.0,21.0,-100.00,East,89,11.0,12.0,94,0.00,,,0.00,,2013-03-18 11:52:00,
2013-03-18 07:02:00,22.0,21.0,-100.00,East,89,11.0,12.0,94,0.00,,,0.00,,2013-03-18 12:02:00,
2013-03-18 07:12:00,22.0,21.0,-100.00,East,88,12.0,14.0,95,0.00,,,0.00,,2013-03-18 12:12:00,
2013-03-18 07:22:00,22.0,21.0,-100.00,East,90,13.0,14.0,94,0.00,,,0.00,,2013-03-18 12:22:00,
2013-03-18 07:32:00,22.0,21.0,-100.00,East,90,11.0,12.0,95,0.00,,,0.00,,2013-03-18 12:32:00,
2013-03-18 07:42:00,22.0,21.0,-100.00,East,89,12.0,13.0,95,0.00,,,0.00,,2013-03-18 12:42:00,
2013-03-18 07:52:00,23.0,21.0,-100.00,East,86,12.0,14.0,95,0.00,,,0.00,,2013-03-18 12:52:00,
2013-03-18 08:02:00,22.0,21.0,-100.00,East,96,14.0,16.0,95,0.00,,,0.00,,2013-03-18 13:02:00,
2013-03-18 08:12:00,22.0,21.0,-100.00,East,95,14.0,16.0,95,0.00,,,0.00,,2013-03-18 13:12:00,
2013-03-18 08:22:00,23.0,21.0,-100.00,East,93,14.0,16.0,95,0.00,,,0.00,,2013-03-18 13:22:00,
2013-03-18 08:32:00,23.0,21.0,-100.00,East,86,12.0,14.0,95,0.00,,,0.00,,2013-03-18 13:32:00,
2013-03-18 08:42:00,23.0,21.0,-100.00,East,83,13.0,15.0,95,0.00,,,0.00,,2013-03-18 13:42:00,
2013-03-18 08:52:00,23.0,21.0,-100.00,East,79,14.0,16.0,95,0.00,,,0.00,,2013-03-18 13:52:00,
2013-03-18 09:02:00,23.0,21.0,-100.00,East,82,14.0,16.0,95,0.00,,,0.00,,2013-03-18 14:02:00,
2013-03-18 09:12:00,23.0,21.0,-100.00,East,82,15.0,17.0,95,0.00,,,0.00,,2013-03-18 14:12:00,
2013-03-18 09:22:00,23.0,21.0,-100.00,East,85,13.0,15.0,95,0.00,,,0.00,,2013-03-18 14:22:00,
2013-03-18 09:32:00,23.0,23.0,-100.00,East,86,14.0,16.0,95,0.00,,,0.00,,2013-03-18 14:32:00,
2013-03-18 09:42:00,24.0,23.0,-100.00,East,85,14.0,16.0,95,0.00,,,0.00,,2013-03-18 14:42:00,
2013-03-18 09:52:00,24.0,23.0,-100.00,East,86,13.0,16.0,95,0.00,,,0.00,,2013-03-18 14:52:00,
2013-03-18 10:02:00,24.0,23.0,-100.00,East,83,12.0,14.0,96,0.00,,,0.00,,2013-03-18 15:02:00,
2013-03-18 10:12:00,24.0,23.0,-100.00,East,82,13.0,14.0,96,0.00,,,0.00,,2013-03-18 15:12:00,
2013-03-18 10:22:00,24.0,23.0,-100.00,ENE,78,12.0,14.0,96,0.00,,,0.00,,2013-03-18 15:22:00,
2013-03-18 10:33:00,24.0,23.0,-100.00,ENE,78,13.0,16.0,96,0.00,,,0.00,,2013-03-18 15:33:00,
2013-03-18 10:42:00,24.0,23.0,-100.00,ENE,76,13.0,15.0,96,0.00,,,0.00,,2013-03-18 15:42:00,
2013-03-18 10:52:00,25.0,23.0,-100.00,East,83,12.0,14.0,96,0.00,,,0.00,,2013-03-18 15:52:00,
2013-03-18 11:02:00,25.0,25.0,-100.00,East,86,12.0,13.0,96,0.00,,,0.00,,2013-03-18 16:02:00,
2013-03-18 11:12:00,25.0,25.0,-100.00,East,85,11.0,12.0,96,0.00,,,0.00,,2013-03-18 16:12:00,
2013-03-18 11:22:00,25.0,25.0,-100.00,East,88,11.0,12.0,96,0.00,,,0.00,,2013-03-18 16:22:00,
2013-03-18 11:32:00,26.0,25.0,-100.00,East,97,7.0,9.0,96,0.00,,,0.00,,2013-03-18 16:32:00,
2013-03-18 11:42:00,26.0,25.0,-100.00,ESE,106,6.0,8.0,96,0.00,,,0.00,,2013-03-18 16:42:00,
2013-03-18 11:52:00,27.0,25.0,-100.00,ESE,114,6.0,6.0,97,0.00,,,0.00,,2013-03-18 16:52:00,
2013-03-18 12:02:00,27.0,27.0,-100.00,ESE,117,4.0,6.0,97,0.00,,,0.00,,2013-03-18 17:02:00,
2013-03-18 12:12:00,28.0,27.0,-100.00,SSE,157,4.0,6.0,97,0.00,,,0.00,,2013-03-18 17:12:00,
2013-03-18 12:22:00,28.0,27.0,-100.00,SSE,155,3.0,5.0,97,0.00,,,0.00,,2013-03-18 17:22:00,
2013-03-18 12:32:00,29.0,28.0,-100.00,South,175,2.0,4.0,97,0.00,,,0.00,,2013-03-18 17:32:00,
2013-03-18 12:42:00,29.0,28.0,-100.00,WSW,243,1.0,2.0,97,0.00,,,0.00,,2013-03-18 17:42:00,
2013-03-18 12:52:00,29.0,28.0,-100.00,South,181,2.0,4.0,97,0.00,,,0.00,,2013-03-18 17:52:00,
2013-03-18 13:02:00,29.0,28.0,-100.00,SSW,212,3.0,5.0,97,0.00,,,0.00,,2013-03-18 18:02:00,
2013-03-18 13:12:00,29.0,28.0,-100.00,South,185,5.0,8.0,97,0.00,,,0.00,,2013-03-18 18:12:00,
2013-03-18 13:22:00,29.0,28.0,-100.00,SW,220,5.0,7.0,97,0.00,,,0.00,,2013-03-18 18:22:00,
2013-03-18 13:32:00,29.0,28.0,-100.00,SSW,200,4.0,9.0,97,0.00,,,0.00,,2013-03-18 18:32:00,
2013-03-18 13:42:00,29.0,28.0,-100.00,SW,220,7.0,10.0,96,0.00,,,0.00,,2013-03-18 18:42:00,
2013-03-18 13:52:00,29.0,28.0,-100.00,SW,219,7.0,9.0,96,0.00,,,0.00,,2013-03-18 18:52:00,
2013-03-18 14:02:00,29.0,27.0,-100.00,SW,220,7.0,10.0,96,0.00,,,0.00,,2013-03-18 19:02:00,
2013-03-18 14:12:00,29.0,27.0,-100.00,SW,217,11.0,17.0,95,0.00,,,0.00,,2013-03-18 19:12:00,
2013-03-18 14:22:00,29.0,27.0,-100.00,SW,217,9.0,13.0,91,0.00,,,0.00,,2013-03-18 19:22:00,
2013-03-18 14:32:00,29.0,27.0,-100.00,SW,220,13.0,18.0,87,0.00,,,0.00,,2013-03-18 19:32:00,
2013-03-18 14:42:00,29.0,25.0,-100.00,SW,219,15.0,19.0,87,0.00,,,0.00,,2013-03-18 19:42:00,
2013-03-18 14:52:00,29.0,25.0,-100.00,SW,222,16.0,18.0,88,0.00,,,0.00,,2013-03-18 19:52:00,
2013-03-18 15:02:00,29.0,27.0,-100.00,SW,223,13.0,18.0,91,0.00,,,0.00,,2013-03-18 20:02:00,
2013-03-18 15:12:00,29.0,27.0,-100.00,SW,222,14.0,19.0,91,0.00,,,0.00,,2013-03-18 20:12:00,
2013-03-18 15:22:00,29.0,25.0,-100.00,SW,220,14.0,17.0,87,0.00,,,0.00,,2013-03-18 20:22:00,
2013-03-18 15:32:00,28.0,25.0,-100.00,WSW,244,14.0,21.0,86,0.00,,,0.00,,2013-03-18 20:32:00,
2013-03-18 15:42:00,28.0,25.0,-100.00,SW,232,19.0,23.0,86,0.00,,,0.00,,2013-03-18 20:42:00,
2013-03-18 15:52:00,27.0,23.0,-100.00,WSW,243,20.0,27.0,84,0.00,,,0.00,,2013-03-18 20:52:00,
2013-03-18 16:02:00,27.0,21.0,-100.00,WSW,248,20.0,24.0,81,0.00,,,0.00,,2013-03-18 21:02:00,
2013-03-18 16:12:00,27.0,21.0,-100.00,WSW,246,16.0,21.0,80,0.00,,,0.00,,2013-03-18 21:12:00,
2013-03-18 16:22:00,26.0,21.0,-100.00,WSW,243,16.0,22.0,79,0.00,,,0.00,,2013-03-18 21:22:00,
2013-03-18 16:32:00,26.0,19.0,-100.00,WSW,246,21.0,26.0,75,0.00,,,0.00,,2013-03-18 21:32:00,
2013-03-18 16:42:00,26.0,18.0,-100.00,WSW,250,17.0,21.0,73,0.00,,,0.00,,2013-03-18 21:42:00,
2013-03-18 16:52:00,26.0,18.0,-100.00,WSW,239,16.0,22.0,72,0.00,,,0.00,,2013-03-18 21:52:00,
2013-03-18 17:03:00,25.0,18.0,-100.00,WSW,247,18.0,22.0,70,0.00,,,0.00,,2013-03-18 22:03:00,
2013-03-18 17:13:00,25.0,18.0,-100.00,WSW,246,17.0,24.0,71,0.00,,,0.00,,2013-03-18 22:13:00,
2013-03-18 17:23:00,25.0,16.0,-100.00,WSW,243,18.0,23.0,69,0.00,,,0.00,,2013-03-18 22:23:00,
2013-03-18 17:33:00,25.0,16.0,-100.00,WSW,246,17.0,22.0,69,0.00,,,0.00,,2013-03-18 22:33:00,
2013-03-18 17:42:00,24.0,16.0,-100.00,WSW,241,16.0,21.0,70,0.00,,,0.00,,2013-03-18 22:42:00,
2013-03-18 17:52:00,23.0,16.0,-100.00,WSW,239,15.0,24.0,69,0.00,,,0.00,,2013-03-18 22:52:00,
2013-03-18 18:03:00,23.0,14.0,-100.00,SW,236,16.0,21.0,70,0.00,,,0.00,,2013-03-18 23:03:00,
2013-03-18 18:12:00,23.0,14.0,-100.00,WSW,248,17.0,22.0,70,0.00,,,0.00,,2013-03-18 23:12:00,
2013-03-18 18:22:00,23.0,14.0,-100.00,WSW,248,15.0,21.0,68,0.00,,,0.00,,2013-03-18 23:22:00,
2013-03-18 18:32:00,23.0,14.0,-100.00,WSW,248,17.0,24.0,67,0.00,,,0.00,,2013-03-18 23:32:00,
2013-03-18 18:42:00,23.0,14.0,-100.00,WSW,248,14.0,21.0,70,0.00,,,0.00,,2013-03-18 23:42:00,
2013-03-18 18:52:00,22.0,14.0,-100.00,WSW,247,19.0,28.0,69,0.00,,,0.00,,2013-03-18 23:52:00,
2013-03-18 19:02:00,22.0,14.0,-100.00,WSW,248,14.0,19.0,71,0.00,,,0.00,,2013-03-19 00:02:00,
2013-03-18 19:12:00,22.0,14.0,-100.00,WSW,246,15.0,19.0,73,0.00,,,0.00,,2013-03-19 00:12:00,
2013-03-18 19:22:00,22.0,14.0,-100.00,WSW,244,16.0,19.0,75,0.00,,,0.00,,2013-03-19 00:22:00,
2013-03-18 19:32:00,22.0,16.0,-100.00,WSW,244,13.0,20.0,76,0.00,,,0.00,,2013-03-19 00:32:00,
2013-03-18 19:42:00,21.0,16.0,-100.00,WSW,246,15.0,19.0,77,0.00,,,0.00,,2013-03-19 00:42:00,
2013-03-18 19:52:00,21.0,16.0,-100.00,WSW,240,12.0,17.0,80,0.00,,,0.00,,2013-03-19 00:52:00,
2013-03-18 20:02:00,21.0,16.0,-100.00,SW,234,14.0,19.0,81,0.00,,,0.00,,2013-03-19 01:02:00,
2013-03-18 20:12:00,21.0,16.0,-100.00,WSW,237,14.0,18.0,83,0.00,,,0.00,,2013-03-19 01:12:00,
2013-03-18 20:22:00,21.0,16.0,-100.00,WSW,237,13.0,17.0,85,0.00,,,0.00,,2013-03-19 01:22:00,
2013-03-18 20:32:00,21.0,18.0,-100.00,SW,232,15.0,18.0,85,0.00,,,0.00,,2013-03-19 01:32:00,
2013-03-18 20:42:00,21.0,18.0,-100.00,SW,236,14.0,17.0,86,0.00,,,0.00,,2013-03-19 01:42:00,
2013-03-18 20:52:00,21.0,18.0,-100.00,SW,230,14.0,21.0,85,0.00,,,0.00,,2013-03-19 01:52:00,
2013-03-18 21:02:00,21.0,18.0,-100.00,SW,233,14.0,18.0,85,0.00,,,0.00,,2013-03-19 02:02:00,
2013-03-18 21:12:00,21.0,18.0,-100.00,SW,234,14.0,17.0,85,0.00,,,0.00,,2013-03-19 02:12:00,
2013-03-18 21:22:00,22.0,18.0,-100.00,WSW,240,14.0,19.0,82,0.00,,,0.00,,2013-03-19 02:22:00,
2013-03-18 21:32:00,23.0,18.0,-100.00,WSW,247,14.0,21.0,80,0.00,,,0.00,,2013-03-19 02:32:00,
2013-03-18 21:42:00,24.0,18.0,-100.00,West,268,17.0,22.0,76,0.00,,,0.00,,2013-03-19 02:42:00,
2013-03-18 21:52:00,24.0,16.0,-100.00,West,272,19.0,26.0,74,0.00,,,0.00,,2013-03-19 02:52:00,
2013-03-18 22:02:00,23.0,16.0,-100.00,West,271,19.0,24.0,74,0.00,,,0.00,,2013-03-19 03:02:00,
2013-03-18 22:12:00,23.0,16.0,-100.00,West,270,21.0,27.0,74,0.00,,,0.00,,2013-03-19 03:12:00,
2013-03-18 22:22:00,22.0,16.0,-100.00,West,267,24.0,30.0,74,0.00,,,0.00,,2013-03-19 03:22:00,
2013-03-18 22:32:00,22.0,14.0,-100.00,West,264,19.0,29.0,74,0.00,,,0.00,,2013-03-19 03:32:00,
2013-03-18 22:43:00,21.0,14.0,-100.00,West,271,19.0,24.0,74,0.00,,,0.00,,2013-03-19 03:43:00,
2013-03-18 22:53:00,21.0,14.0,-100.00,West,268,22.0,29.0,73,0.00,,,0.00,,2013-03-19 03:53:00,
2013-03-18 23:03:00,21.0,14.0,-100.00,West,267,20.0,25.0,74,0.00,,,0.00,,2013-03-19 04:03:00,
2013-03-18 23:13:00,20.0,12.0,-100.00,West,265,24.0,33.0,72,0.00,,,0.00,,2013-03-19 04:13:00,
2013-03-18 23:23:00,20.0,12.0,-100.00,West,271,21.0,27.0,73,0.00,,,0.00,,2013-03-19 04:23:00,
2013-03-18 23:33:00,20.0,12.0,-100.00,West,277,24.0,30.0,74,0.00,,,0.00,,2013-03-19 04:33:00,
2013-03-18 23:43:00,20.0,12.0,-100.00,West,275,23.0,29.0,73,0.00,,,0.00,,2013-03-19 04:43:00,
2013-03-18 23:52:00,19.0,12.0,-100.00,West,278,28.0,37.0,73,0.00,,,0.00,,2013-03-19 04:52:00,